Weather observations for the past three days for
Pittsburgh International Airport
Imperial (Metric)
Date Time (edt) Wind (mph) Vis. (mi.) Weather Sky Cond. Temperature (ºF) Relative Humidity Wind Chill (°F) Heat Index (°F) Pressure Precipitation (in)
Air Dwpt 6 hour altimeter (in) sea level (mb) 1 hr 3 hr 6 hr
Max. Min.
13 19:51 S 9 10.00 A Few Clouds FEW120 FEW250 84 55 87.1 82.9 37% 83 29.95 1013.9
13 18:51 SW 10 10.00 A Few Clouds FEW250 84.9 54 35% 83 29.94 1013.7
13 17:51 SW 9 10.00 A Few Clouds FEW120 FEW250 84.9 55 36% 84 29.95 1014.2
13 16:51 W 6 G 17 10.00 A Few Clouds FEW050 FEW120 84.9 54 35% 83 29.96 1014.5
13 15:51 SW 13 G 17 10.00 A Few Clouds FEW050 84.9 53.1 33% 83 29.96 1014.5
13 14:51 S 8 10.00 A Few Clouds FEW250 84 53.1 34% 83 29.96 1014.5
13 13:51 S 13 G 20 10.00 A Few Clouds FEW250 82.9 54 82.9 64 37% 82 29.99 1015.2
13 12:51 W 8 10.00 Fair CLR 81 54 39% 81 30 1015.8
13 11:51 Vrbl 7 10.00 A Few Clouds FEW120 FEW250 80.1 53.1 39% 80 30.03 1016.7
13 10:51 SW 7 10.00 A Few Clouds FEW250 78.1 53.1 42% 79 30.02 1016.5
13 09:51 SW 7 10.00 A Few Clouds FEW250 75 54 48% 78 30.02 1016.5
13 08:51 S 5 10.00 Partly Cloudy FEW150 SCT250 72 54 53% 30.03 1016.8
13 07:51 Calm 10.00 Mostly Cloudy FEW150 BKN250 64 53.1 64 57 68% 30.02 1016.6
13 06:51 Calm 10.00 Mostly Cloudy FEW120 BKN250 60.1 52 75% 30.02 1016.5
13 05:51 Calm 10.00 Partly Cloudy FEW120 SCT250 57.9 52 81% 30.01 1016.3
13 04:51 Calm 10.00 A Few Clouds FEW250 57.9 51.1 78% 30.01 1016.4
13 03:51 Calm 10.00 A Few Clouds FEW250 61 52 72% 30.01 1016.0
13 02:51 Calm 10.00 A Few Clouds FEW250 62.1 52 70% 30 1015.8
13 01:51 Calm 10.00 A Few Clouds FEW250 63 52 78.1 62.1 68% 30.01 1016.0
13 00:51 Calm 10.00 A Few Clouds FEW250 64.9 52 63% 30.01 1016.0
12 23:51 Calm 10.00 A Few Clouds FEW250 66.9 52 59% 30.02 1016.4
12 22:51 S 3 10.00 A Few Clouds FEW250 68 52 57% 30.02 1016.5
12 21:51 SW 3 10.00 A Few Clouds FEW250 71.1 52 51% 30.02 1016.5
12 20:51 W 3 10.00 A Few Clouds FEW250 75 50 42% 78 30.01 1016.1
12 19:51 W 3 10.00 A Few Clouds FEW250 78.1 48.9 80.1 75.9 36% 79 30 1016.2
12 18:51 W 6 10.00 A Few Clouds FEW075 FEW250 79 48.9 35% 79 30 1016.0
12 17:51 NW 3 10.00 A Few Clouds FEW070 80.1 46.9 31% 79 30 1015.9
12 16:51 W 7 10.00 A Few Clouds FEW070 80.1 48 33% 79 30.01 1016.5
12 15:51 W 8 10.00 A Few Clouds FEW060 80.1 48 33% 79 30.02 1016.8
12 14:51 Calm 10.00 A Few Clouds FEW060 78.1 48.9 36% 79 30.03 1017.1
12 13:51 NW 6 10.00 Partly Cloudy SCT055 78.1 48 78.1 57.9 35% 78 30.04 1017.4
12 12:51 S 10 10.00 Partly Cloudy SCT045 75.9 48.9 39% 78 30.06 1018.0
12 11:51 W 9 10.00 Partly Cloudy SCT035 75 50 42% 78 30.07 1018.3
12 10:51 SW 9 10.00 A Few Clouds FEW120 72 48.9 44% 30.07 1018.5
12 09:51 SW 8 10.00 Partly Cloudy FEW120 SCT220 70 50 49% 30.08 1018.7
12 08:51 SW 3 10.00 Partly Cloudy FEW075 FEW120 SCT220 66 51.1 59% 30.07 1018.5
12 07:51 Calm 10.00 Partly Cloudy SCT075 SCT170 57.9 50 57.9 53.1 75% 30.07 1018.5
12 06:51 Calm 10.00 Mostly Cloudy SCT075 BKN170 54 48 80% 30.06 1018.3
12 05:51 Calm 10.00 Mostly Cloudy SCT110 BKN200 54 48 80% 30.05 1017.8
12 04:51 Calm 10.00 Mostly Cloudy FEW060 BKN210 55 48 77% 30.03 1017.4
12 03:51 Calm 10.00 Mostly Cloudy BKN220 55 48 77% 30.02 1017.0
12 02:51 SE 3 10.00 Mostly Cloudy BKN220 55 48 77% 30.02 1017.1
12 01:51 Calm 10.00 Partly Cloudy SCT250 57 48 69.1 55.9 72% 30.04 1017.6
12 00:51 Calm 10.00 Partly Cloudy SCT250 59 48 67% 30.04 1017.5
11 23:51 Calm 10.00 Partly Cloudy SCT250 60.1 48 65% 30.04 1017.5
11 22:51 Calm 10.00 A Few Clouds FEW250 61 48 63% 30.03 1017.3
11 21:51 Calm 10.00 Partly Cloudy FEW055 SCT250 62.1 48 60% 30.02 1017.0
11 20:51 Vrbl 5 10.00 Mostly Cloudy FEW055 BKN250 66.9 46 47% 30.01 1016.4
11 19:51 NW 6 10.00 Partly Cloudy FEW050 SCT250 69.1 45 72 66 42% 29.99 1016.0
11 18:51 NW 8 10.00 Partly Cloudy SCT055 SCT250 71.1 46 41% 29.98 1015.7
11 17:51 NW 7 10.00 Partly Cloudy SCT055 72 46 40% 29.98 1015.7
11 16:51 NW 8 10.00 Partly Cloudy SCT055 69.1 46 44% 29.98 1015.9
11 15:51 W 7 10.00 Partly Cloudy SCT050 70 46 42% 29.98 1015.7
11 14:51 Vrbl 7 10.00 Mostly Cloudy BKN050 68 44.1 42% 30 1016.4
11 13:51 NW 6 10.00 Mostly Cloudy BKN046 66.9 45 68 55.9 45% 30.01 1016.5
11 12:51 N 5 G 22 10.00 Mostly Cloudy BKN040 64 46 52% 30.02 1017.1
11 11:51 NW 8 10.00 Mostly Cloudy BKN035 64.9 45 49% 30.02 1017.1
11 10:51 NW 8 G 20 10.00 Mostly Cloudy BKN030 63 46 54% 30.02 1017.0
11 09:51 NW 8 10.00 Mostly Cloudy BKN028 59 46.9 64% 30.01 1016.6
11 08:51 NW 9 10.00 Partly Cloudy SCT025 SCT065 57.9 48 70% 30 1016.3
11 07:51 W 8 10.00 Partly Cloudy FEW030 SCT065 SCT110 55.9 48 55.9 50 75% 29.99 1016.1
11 06:51 W 3 9.00 Partly Cloudy FEW030 SCT065 SCT110 52 46.9 83% 29.98 1015.9
11 05:51 W 3 10.00 Mostly Cloudy FEW035 BKN065 BKN110 51.1 46 83% 29.97 1015.5
11 04:51 W 3 10.00 Mostly Cloudy SCT050 BKN065 51.1 46 83% 29.95 1014.9
11 03:51 W 3 10.00 A Few Clouds FEW035 FEW050 51.1 46 83% 29.94 1014.4
11 02:51 NW 5 10.00 Mostly Cloudy FEW030 BKN050 54 46 75% 29.94 1014.2
11 01:51 NW 5 10.00 Mostly Cloudy FEW029 BKN055 55 45 60.1 55 69% 29.93 1013.8
11 00:51 N 5 10.00 Mostly Cloudy SCT029 SCT050 BKN075 55.9 44.1 65% 29.93 1013.9
10 23:51 NW 9 10.00 Overcast BKN029 OVC075 57 45 64% 29.93 1013.9
10 22:51 NW 7 10.00 Overcast FEW015 OVC022 57 48 72% 29.92 1013.6
10 21:51 NW 9 10.00 Overcast FEW018 BKN027 OVC070 57.9 46.9 67% 29.9 1012.9
10 20:51 NW 12 10.00 Overcast FEW018 OVC025 59 48 67% 29.87 1012.1
Date Time (edt) Wind (mph) Vis. (mi.) Weather Sky Cond. Air Dwpt Max. Min. Relative Humidity Wind Chill (°F) Heat Index (°F) altimeter (in) sea level (mb) 1 hr 3 hr 6 hr
6 hour
Temperature (ºF) Pressure Precipitation (in)